Location: Mentone
(34.5413°N, 85.5351°W)
Time: 23:51:16
(UTC-06:00)

Amateur Radio Satellites - All Passes

Search period start: 17 January 2017 23:21
Search period end: 18 January 2017 23:21
Location: Mentone, 34.5413°N, 85.5351°W

Satellite Date Start Highest point End Downlink Frequencies (MHz)
Time Altitude Azimuth
TISAT 1 17 Jan 23:21:31 23:21:59 10° 65° (ENE) 23:22:25 437.305
AISAT 17 Jan 23:25:43 23:30:05 53° 260° (W) 23:34:26 437.250
JAS-2 17 Jan 23:27:46 23:34:38 52° 288° (WNW) 23:42:04 435.910
ESTCUBE 1 17 Jan 23:37:05 23:39:46 16° 266° (W) 23:42:30 437.505/2401.250
BUGSAT 1 17 Jan 23:48:47 23:52:37 42° 99° (E) 23:56:28 437.445
Oscar 19 17 Jan 23:52:27 23:54:16 12° 92° (E) 23:56:05 437.125/150
QB50P1 17 Jan 23:56:19 00:00:13 38° 287° (WNW) 00:04:07 145.935-145.965
POLYITAN 1 17 Jan 23:59:32 00:03:23 35° 287° (WNW) 00:07:14 437.675
VELOX 1 18 Jan 00:00:16 00:03:48 23° 264° (W) 00:07:20 145.980
QB50P2 18 Jan 00:00:46 00:04:31 31° 288° (WNW) 00:08:15 145.880/145.840
AO-85 18 Jan 00:07:26 00:10:46 28° 247° (WSW) 00:14:09 145.980
50 SAT 18 Jan 00:11:09 00:13:23 16° 265° (W) 00:15:39 437.505
POPSAT HIP 1 18 Jan 00:23:39 00:26:41 20° 291° (WNW) 00:29:44 437.405
PCSat 18 Jan 00:36:26 00:41:49 77° 114° (ESE) 00:47:15 145.827
AIST 1 18 Jan 00:37:59 00:41:57 37° 79° (E) 00:45:53
DUCHIFAT 1 18 Jan 00:38:42 00:41:11 16° 292° (WNW) 00:43:40 145.980
DX 1 18 Jan 00:43:08 00:45:49 16° 266° (W) 00:48:29 434.975-435.025
NANOSAT C BR1 18 Jan 00:43:13 00:45:05 13° 293° (WNW) 00:46:58 145.865
UKube-1 18 Jan 00:47:40 00:50:44 19° 265° (W) 00:53:49 .
YUBILEINY 18 Jan 00:51:31 01:00:04 51° 79° (ENE) 01:08:30 435.215
TISAT 1 18 Jan 00:52:58 00:57:04 56° 259° (W) 01:01:11 437.305
RS-15 18 Jan 00:58:27 01:09:39 46° 310° (NW) 01:21:20 29.354- 29.394
ITUPSAT 1 18 Jan 01:09:20 01:13:39 36° 71° (ENE) 01:17:59 437.325
Gurwin Techsat 1B 18 Jan 01:19:37 01:24:48 51° 100° (E) 01:29:56 435.225
BUGSAT 1 18 Jan 01:25:59 01:27:35 12° 293° (WNW) 01:29:09 437.445
BEESAT 3 18 Jan 01:27:37 01:31:29 46° 58° (ENE) 01:35:19 437.485
Oscar 19 18 Jan 01:28:51 01:33:59 66° 286° (WNW) 01:39:03 437.125/150
Cosmos 2491 18 Jan 01:34:22 01:42:48 58° 91° (E) 01:51:15 435.465 / 435.565
BEESAT 18 Jan 01:45:27 01:50:11 88° 260° (W) 01:54:58 436.000
SWISSCUBE 18 Jan 01:46:47 01:51:31 76° 258° (WSW) 01:56:18 437.505
PHONESAT 2.4 18 Jan 01:47:14 01:49:20 31° 150° (SSE) 01:51:26 2401.200-2431.200
M-CUBED/EXP-1 PRIME 18 Jan 01:49:45 01:52:54 19° 65° (ENE) 01:55:56 437.505
Cosmos 2504 18 Jan 02:00:08 02:07:32 73° 82° (E) 02:14:39 435.465 / 435.565
ITAMSAT 1 18 Jan 02:05:56 02:10:15 26° 96° (E) 02:14:33 435.822/435.867
BEESAT 2 18 Jan 02:05:58 02:09:56 52° 59° (ENE) 02:13:52 435.950
MOZHAYETS 4 18 Jan 02:06:49 02:11:04 40° 73° (ENE) 02:15:21
AIST 1 18 Jan 02:17:05 02:19:08 13° 274° (W) 02:21:11
PCSat 18 Jan 02:22:55 02:25:48 14° 311° (NW) 02:28:43 145.827
AUBIESAT-1 18 Jan 02:27:51 02:31:58 40° 69° (ENE) 02:35:53 437.475
STARS 18 Jan 02:35:28 02:36:33 11° 65° (ENE) 02:37:37 437.465
CUBESAT XI-V 18 Jan 02:46:31 02:49:18 16° 67° (ENE) 02:52:06 437.345
ITUPSAT 1 18 Jan 02:48:09 02:51:31 19° 265° (W) 02:54:56 437.325
YUBILEINY 18 Jan 02:49:06 02:56:21 30° 276° (W) 03:03:34 435.215
CUSAT 1 18 Jan 02:56:37 03:01:00 66° 94° (E) 03:06:53 437.405
Gurwin Techsat 1B 18 Jan 03:00:51 03:04:17 18° 295° (WNW) 03:07:42 435.225
KKS-1 18 Jan 03:06:56 03:11:19 61° 75° (ENE) 03:15:43 437.445
BEESAT 3 18 Jan 03:07:17 03:08:38 11° 252° (WSW) 03:10:00 437.485
AO-7 18 Jan 03:07:40 03:15:58 62° 104° (ESE) 03:24:09 29.400- 29.500
RS-15 18 Jan 03:19:51 03:26:40 16° 341° (NNW) 03:33:35 29.354- 29.394
DANDE 18 Jan 03:21:12 03:23:45 19° 85° (E) 03:26:46 436.750
PHONESAT 2.4 18 Jan 03:21:25 03:23:30 29° 345° (NNW) 03:25:36 2401.200-2431.200
M-CUBED/EXP-1 PRIME 18 Jan 03:22:59 03:27:07 35° 257° (WSW) 03:31:04 437.505
Cosmos 2491 18 Jan 03:33:02 03:40:01 27° 288° (WNW) 03:47:05 435.465 / 435.565
AIST 2 18 Jan 03:40:32 03:42:07 12° 47° (NE) 03:43:43 435.215
ITAMSAT 1 18 Jan 03:45:05 03:49:39 32° 291° (WNW) 03:54:13 435.822/435.867
MOZHAYETS 4 18 Jan 03:45:39 03:48:22 15° 267° (W) 03:51:05
BEESAT 2 18 Jan 03:46:36 03:47:12 10° 253° (WSW) 03:47:50 435.950
Cosmos 2504 18 Jan 03:56:06 03:59:53 15° 280° (W) 04:03:37 435.465 / 435.565
BRITE-PL 18 Jan 03:59:59 04:04:08 28° 95° (E) 04:08:00 437.365/2234.400
AUBIESAT-1 18 Jan 04:03:49 04:06:23 15° 260° (W) 04:08:54 437.475
STARS 18 Jan 04:08:02 04:12:21 59° 259° (W) 04:16:40 437.465
HORYU 2 18 Jan 04:12:46 04:15:24 15° 94° (E) 04:18:00 437.375
ISS 18 Jan 04:13:18 04:14:11 11° 26° (NNE) 04:15:04 145.825
GOMX 1 18 Jan 04:19:19 04:21:43 14° 92° (E) 04:24:02 467.674
CUBESAT XI-V 18 Jan 04:21:48 04:26:15 45° 261° (W) 04:30:47 437.345
CUTE-I 18 Jan 04:38:48 04:39:29 10° 91° (E) 04:40:10 437.470
CUSAT 1 18 Jan 04:41:56 04:43:59 12° 299° (WNW) 04:46:13 437.405
LilacSat-2 18 Jan 04:49:47 04:51:22 12° 93° (E) 04:52:56 437.200
PHONESAT 2.4 18 Jan 04:56:22 04:58:03 18° 1° (N) 04:59:45 2401.200-2431.200
AO-7 18 Jan 05:01:27 05:08:05 27° 301° (WNW) 05:14:42 29.400- 29.500
STRAND 1 18 Jan 05:03:03 05:05:36 14° 64° (ENE) 05:08:10 437.568
DANDE 18 Jan 05:03:56 05:06:22 17° 293° (WNW) 05:09:15 436.750
DOVE 4 18 Jan 05:11:32 05:14:38 20° 95° (E) 05:17:42 437.250
AIST 2 18 Jan 05:16:48 05:21:01 67° 244° (WSW) 05:25:12 435.215
Cubesat XI-IV 18 Jan 05:17:38 05:22:11 28° 97° (E) 05:26:44 437.490
NOAA 15 18 Jan 05:36:02 05:41:09 46° 100° (E) 05:46:12 137.62
BRITE-PL 18 Jan 05:38:33 05:42:27 24° 292° (WNW) 05:46:08 437.365/2234.400
GONETS M04 18 Jan 05:39:02 05:45:50 24° 71° (ENE) 05:52:34
RS-15 18 Jan 05:39:51 05:46:53 16° 20° (NNE) 05:53:50 29.354- 29.394
ISS 18 Jan 05:47:54 05:51:08 77° 42° (NE) 05:54:23 145.825
HORYU 2 18 Jan 05:47:54 05:52:02 39° 288° (WNW) 05:56:11 437.375
GOMX 1 18 Jan 05:55:54 06:00:00 37° 288° (WNW) 06:03:54 467.674
O/OREOS (USA 219) 18 Jan 06:10:58 06:15:26 76° 108° (ESE) 06:19:54 437.305
CUTE-I 18 Jan 06:14:40 06:20:00 77° 285° (WNW) 06:25:19 437.470
Cosmos 2499 18 Jan 06:20:44 06:27:40 51° 79° (E) 06:34:28 435.465 / 435.565
CANX-2 18 Jan 06:21:33 06:24:30 18° 94° (E) 06:27:26 2200.000
LilacSat-2 18 Jan 06:22:12 06:25:45 36° 286° (WNW) 06:29:19 437.200
PHONESAT 2.4 18 Jan 06:30:24 06:32:34 36° 17° (NNE) 06:34:45 2401.200-2431.200
SEEDS 18 Jan 06:38:37 06:41:10 15° 93° (E) 06:43:41 437.485
STRAND 1 18 Jan 06:39:13 06:44:14 60° 259° (W) 06:49:16 437.568
NOAA 18 18 Jan 06:39:37 06:45:06 87° 281° (W) 06:50:32 137.9125
DOVE 4 18 Jan 06:48:53 06:52:18 25° 289° (WNW) 06:55:40 437.250
COMPASS 1 18 Jan 06:49:41 06:51:37 13° 93° (E) 06:53:33 437.405
SO-50 18 Jan 06:54:59 06:58:40 23° 111° (ESE) 07:02:19 436.795
Cubesat XI-IV 18 Jan 06:57:34 07:02:10 30° 291° (WNW) 07:06:46 437.490
CINEMA 3 18 Jan 06:58:40 07:02:51 82° 100° (E) 07:07:09 145.822/145.860
AAUSAT CUBESAT 2 18 Jan 07:03:26 07:05:41 14° 93° (E) 07:07:56 437.432
UWE-3 18 Jan 07:10:12 07:12:28 14° 93° (E) 07:14:45 435.000/436.395/437.385
NOAA 15 18 Jan 07:16:50 07:20:31 19° 294° (WNW) 07:24:10 137.62
HO-68 18 Jan 07:25:29 07:32:42 77° 104° (ESE) 07:39:51 435.675
CUTE 1.7 + AOD 2 18 Jan 07:27:28 07:31:47 83° 282° (WNW) 07:36:04 437.475
GONETS M04 18 Jan 07:34:31 07:43:13 65° 268° (W) 07:51:54
ZACube-1 18 Jan 07:34:36 07:37:15 16° 94° (E) 07:39:56 437.345
PRISM 18 Jan 07:34:44 07:38:05 24° 70° (ENE) 07:41:25 437.425
RS-15 18 Jan 07:52:04 08:03:50 47° 50° (NE) 08:15:06 29.354- 29.394
CANX-2 18 Jan 07:56:34 08:00:22 31° 288° (WNW) 08:04:08 2200.000
PHONESAT 2.4 18 Jan 08:04:43 08:06:39 23° 212° (SSW) 08:08:36 2401.200-2431.200
CUBEBUG 2 18 Jan 08:10:52 08:15:09 66° 284° (WNW) 08:19:34 437.445
SEEDS 18 Jan 08:13:03 08:16:56 35° 287° (WNW) 08:20:47 437.485
Oscar 11 18 Jan 08:14:46 08:18:50 38° 98° (E) 08:22:53 145.826/435.025
Cosmos 2499 18 Jan 08:15:02 08:20:12 22° 276° (W) 08:25:21 435.465 / 435.565
COMPASS 1 18 Jan 08:23:21 08:27:19 41° 286° (WNW) 08:31:15 437.405
SO-50 18 Jan 08:34:37 08:38:55 34° 305° (NW) 08:43:11 436.795
AAUSAT CUBESAT 2 18 Jan 08:37:24 08:41:15 36° 287° (WNW) 08:45:04 437.432
DELFI C3 18 Jan 08:42:17 08:45:31 23° 96° (E) 08:48:44 145.870
UWE-3 18 Jan 08:44:55 08:49:02 42° 286° (WNW) 08:53:15 435.000/436.395/437.385
UNISAT 6 18 Jan 08:46:27 08:50:31 44° 74° (ENE) 08:54:34 437.425
FUNcube-1 18 Jan 08:47:41 08:52:04 76° 283° (WNW) 08:56:31 145.935
TIGRISAT 18 Jan 09:00:27 09:04:39 61° 75° (ENE) 09:08:51 435.000
ZACube-1 18 Jan 09:09:33 09:13:36 38° 287° (WNW) 09:17:44 437.345
PRISM 18 Jan 09:09:58 09:13:15 22° 264° (W) 09:16:33 437.425
ANTELSAT 18 Jan 09:14:57 09:19:14 82° 258° (WSW) 09:23:30 437.575/2403.000
HO-68 18 Jan 09:15:03 09:19:36 18° 301° (WNW) 09:24:09 435.675
PCSat 18 Jan 09:28:14 09:32:58 29° 56° (NE) 09:37:39 145.827
JAS-2 18 Jan 09:37:16 09:42:14 47° 71° (ENE) 09:47:35 435.910
POPSAT HIP 1 18 Jan 09:37:53 09:40:04 14° 67° (ENE) 09:42:14 437.405
HUMSAT D 18 Jan 09:42:34 09:46:51 73° 101° (E) 09:51:08 437.325/437.525
DUCHIFAT 1 18 Jan 09:51:16 09:53:59 17° 68° (ENE) 09:56:43 145.980
Oscar 11 18 Jan 09:51:59 09:54:37 16° 292° (WNW) 09:57:14 145.826/435.025
NANOSAT C BR1 18 Jan 09:55:00 09:58:08 21° 70° (ENE) 10:01:17 145.865
ESTCUBE 1 18 Jan 09:57:07 09:58:17 11° 92° (E) 09:59:27 437.505/2401.250
RS-15 18 Jan 10:04:50 10:16:23 51° 251° (WSW) 10:27:28 29.354- 29.394
DELFI C3 18 Jan 10:17:11 10:20:09 20° 290° (WNW) 10:23:07 145.870
UNISAT 6 18 Jan 10:25:45 10:27:25 12° 267° (W) 10:29:04 437.425
BUGSAT 1 18 Jan 10:35:47 10:38:40 19° 70° (ENE) 10:41:34 437.445
QB50P1 18 Jan 10:44:31 10:48:43 86° 258° (WSW) 10:52:56 145.935-145.965
POLYITAN 1 18 Jan 10:47:54 10:52:05 78° 258° (WSW) 10:56:17 437.675
QB50P2 18 Jan 10:49:04 10:53:15 69° 259° (WSW) 10:57:26 145.880/145.840
BY70-1 18 Jan 10:54:04 10:57:21 49° 284° (WNW) 11:00:25 436.1900
SPROUT 18 Jan 11:04:52 11:07:30 16° 94° (E) 11:10:08 437.525
Oscar 19 18 Jan 11:05:54 11:08:23 14° 64° (ENE) 11:10:51 437.125/150
CUBEBUG 1 18 Jan 11:09:20 11:13:29 44° 99° (E) 11:17:35 437.445
PCSat 18 Jan 11:11:30 11:16:18 33° 252° (WSW) 11:21:04 145.827
POPSAT HIP 1 18 Jan 11:11:31 11:15:27 40° 261° (W) 11:19:25 437.405
AISAT 18 Jan 11:19:22 11:23:25 36° 98° (E) 11:27:25 437.250
JAS-2 18 Jan 11:24:28 11:27:43 16° 268° (W) 11:31:05 435.910
DUCHIFAT 1 18 Jan 11:25:40 11:29:24 31° 263° (W) 11:33:07 145.980
NANOSAT C BR1 18 Jan 11:30:13 11:33:41 25° 263° (W) 11:37:10 145.865
ESTCUBE 1 18 Jan 11:30:55 11:35:22 56° 285° (WNW) 11:39:46 437.505/2401.250
50 SAT 18 Jan 11:38:42 11:42:06 42° 99° (E) 11:45:27 437.505
Cosmos 2491 18 Jan 11:50:01 11:56:41 23° 70° (ENE) 12:03:19 435.465 / 435.565
VELOX 1 18 Jan 11:52:38 11:57:02 87° 103° (ESE) 12:01:24 145.980
BUGSAT 1 18 Jan 12:10:22 12:13:50 26° 263° (W) 12:17:17 437.445
AO-7 18 Jan 12:17:17 12:19:32 11° 50° (NE) 12:21:46 29.400- 29.500
DX 1 18 Jan 12:32:44 12:37:04 70° 284° (WNW) 12:41:20 434.975-435.025
UKube-1 18 Jan 12:36:36 12:40:55 88° 278° (W) 12:45:13 .
Gurwin Techsat 1B 18 Jan 12:37:07 12:42:18 57° 73° (ENE) 12:47:30 435.225
AO-85 18 Jan 12:38:45 12:41:53 17° 110° (ESE) 12:44:53 145.980
SPROUT 18 Jan 12:39:38 12:43:29 34° 288° (WNW) 12:47:18 437.525
TISAT 1 18 Jan 12:40:29 12:44:02 27° 97° (E) 12:47:35 437.305
Oscar 19 18 Jan 12:41:57 12:47:05 65° 258° (WSW) 12:52:16 437.125/150
CUBEBUG 1 18 Jan 12:47:13 12:49:20 13° 294° (WNW) 12:51:27 437.445
AISAT 18 Jan 12:56:45 12:59:33 17° 292° (WNW) 13:02:20 437.250
AIST 1 18 Jan 13:03:39 13:07:20 27° 90° (E) 13:11:00
ITUPSAT 1 18 Jan 13:15:14 13:17:03 12° 92° (E) 13:18:52 437.325
ITAMSAT 1 18 Jan 13:20:35 13:24:57 28° 69° (ENE) 13:29:19 435.822/435.867
JUGNU 18 Jan 13:25:15 13:27:03 11° 165° (SSE) 13:28:50 437.505
CUSAT 1 18 Jan 13:32:21 13:40:01 48° 76° (ENE) 13:47:07 437.405
Cosmos 2491 18 Jan 13:45:26 13:54:06 66° 268° (W) 14:02:47 435.465 / 435.565
YUBILEINY 18 Jan 13:47:22 13:56:02 66° 92° (E) 14:04:46 435.215
BEESAT 18 Jan 13:49:23 13:53:36 30° 97° (E) 13:57:48 436.000
SWISSCUBE 18 Jan 13:50:37 13:55:01 36° 98° (E) 13:59:24 437.505
DANDE 18 Jan 13:58:51 14:05:31 30° 73° (ENE) 14:12:32 436.750
AO-7 18 Jan 14:02:25 14:10:35 62° 68° (ENE) 14:18:49 29.400- 29.500
MOZHAYETS 4 18 Jan 14:07:01 14:09:04 13° 92° (E) 14:11:06
TISAT 1 18 Jan 14:16:26 14:19:28 20° 291° (WNW) 14:22:31 437.305
AO-85 18 Jan 14:17:27 14:22:02 43° 302° (WNW) 14:26:18 145.980
Gurwin Techsat 1B 18 Jan 14:19:44 14:22:32 14° 267° (W) 14:25:22 435.225
Cosmos 2504 18 Jan 14:32:11 14:40:55 71° 93° (E) 14:49:13 435.465 / 435.565
AIST 1 18 Jan 14:41:37 14:44:51 20° 284° (WNW) 14:48:06
ITUPSAT 1 18 Jan 14:50:28 14:55:11 58° 286° (WNW) 14:59:53 437.325
ITAMSAT 1 18 Jan 14:59:52 15:04:17 29° 263° (W) 15:08:44 435.822/435.867
KKS-1 18 Jan 15:02:42 15:05:17 15° 94° (E) 15:07:51 437.445
BRITE-PL 18 Jan 15:06:01 15:10:43 28° 69° (ENE) 15:15:25 437.365/2234.400
M-CUBED/EXP-1 PRIME 18 Jan 15:06:21 15:08:24 15° 99° (E) 15:10:25 437.505
JUGNU 18 Jan 15:11:25 15:15:18 18° 175° (S) 15:19:13 437.505
CUSAT 1 18 Jan 15:14:45 15:21:35 33° 273° (W) 15:27:58 437.405
BEESAT 3 18 Jan 15:15:24 15:18:01 17° 110° (ESE) 15:20:39 437.485
GOMX 1 18 Jan 15:23:22 15:26:29 16° 66° (ENE) 15:29:32 467.674
BEESAT 18 Jan 15:27:25 15:31:11 23° 291° (WNW) 15:34:56 436.000
SWISSCUBE 18 Jan 15:29:03 15:32:32 20° 292° (WNW) 15:36:01 437.505
DANDE 18 Jan 15:40:47 15:48:25 57° 267° (W) 15:56:30 436.750
MOZHAYETS 4 18 Jan 15:41:57 15:46:27 51° 286° (WNW) 15:50:56
AUBIESAT-1 18 Jan 15:43:58 15:47:10 42° 104° (ESE) 15:50:18 437.475
YUBILEINY 18 Jan 15:46:48 15:53:26 23° 290° (WNW) 16:00:09 435.215
BEESAT 2 18 Jan 15:54:54 15:57:51 21° 111° (ESE) 16:00:51 435.950
CUTE-I 18 Jan 15:56:17 15:58:49 14° 63° (ENE) 16:01:21 437.470
AO-7 18 Jan 15:57:12 16:03:43 25° 264° (W) 16:10:19 29.400- 29.500
STARS 18 Jan 16:01:01 16:04:54 31° 98° (E) 16:08:46 437.465
DOVE 4 18 Jan 16:13:24 16:16:47 18° 69° (ENE) 16:20:04 437.250
CUBESAT XI-V 18 Jan 16:21:36 16:26:14 58° 100° (E) 16:30:48 437.345
O/OREOS (USA 219) 18 Jan 16:24:22 16:28:53 80° 72° (ENE) 16:33:24 437.305
NOAA 18 18 Jan 16:24:51 16:27:51 15° 63° (ENE) 16:30:50 137.9125
Cosmos 2504 18 Jan 16:28:34 16:34:50 22° 289° (WNW) 16:40:56 435.465 / 435.565
Cubesat XI-IV 18 Jan 16:36:12 16:40:54 33° 70° (ENE) 16:45:38 437.490
SRMSAT 18 Jan 16:37:13 16:40:27 15° 169° (SSE) 16:43:41 437.500
KKS-1 18 Jan 16:37:51 16:41:57 39° 288° (WNW) 16:46:03 437.445
M-CUBED/EXP-1 PRIME 18 Jan 16:40:21 16:42:51 20° 294° (WNW) 16:45:18 437.505
HORYU 2 18 Jan 16:41:50 16:46:12 67° 258° (WSW) 16:50:36 437.375
BRITE-PL 18 Jan 16:43:46 16:48:55 37° 263° (W) 16:54:09 437.365/2234.400
BEESAT 3 18 Jan 16:51:57 16:55:22 29° 305° (NW) 16:58:51 437.485
NOAA 15 18 Jan 16:52:30 16:57:36 52° 73° (ENE) 17:02:45 137.62
GOMX 1 18 Jan 16:58:38 17:04:03 60° 260° (W) 17:09:17 467.674
JUGNU 18 Jan 16:59:42 17:03:38 18° 185° (S) 17:07:35 437.505
LilacSat-2 18 Jan 17:00:06 17:03:47 60° 76° (ENE) 17:07:31 437.200
SO-50 18 Jan 17:08:47 17:13:18 81° 61° (ENE) 17:17:44 436.795
BEESAT 2 18 Jan 17:32:08 17:35:28 26° 306° (NW) 17:38:51 435.950
CUTE-I 18 Jan 17:32:58 17:38:14 66° 258° (WSW) 17:43:31 437.470
STARS 18 Jan 17:37:55 17:41:00 19° 292° (WNW) 17:44:05 437.465
DOVE 4 18 Jan 17:49:16 17:54:09 43° 261° (W) 17:58:48 437.250
HO-68 18 Jan 17:50:18 17:56:51 40° 67° (ENE) 18:03:26 435.675
CINEMA 3 18 Jan 17:56:36 18:00:57 48° 75° (ENE) 18:05:07 145.822/145.860
CUBESAT XI-V 18 Jan 18:01:11 18:03:02 12° 295° (WNW) 18:04:53 437.345
NOAA 18 18 Jan 18:02:26 18:07:54 65° 257° (WSW) 18:13:22 137.9125
CUTE 1.7 + AOD 2 18 Jan 18:16:24 18:20:23 42° 74° (ENE) 18:24:24 437.475
Cubesat XI-IV 18 Jan 18:16:36 18:20:56 25° 264° (W) 18:25:18 437.490
SRMSAT 18 Jan 18:24:47 18:28:55 19° 179° (S) 18:33:04 437.500
NOAA 15 18 Jan 18:34:28 18:37:37 16° 267° (W) 18:40:48 137.62
GONETS M04 18 Jan 18:35:51 18:43:03 30° 85° (E) 18:50:17
CANX-2 18 Jan 18:44:55 18:49:08 71° 259° (W) 18:53:24 2200.000
JUGNU 18 Jan 18:49:52 18:51:55 12° 195° (SSW) 18:53:58 437.505
Cosmos 2499 18 Jan 18:51:44 18:59:54 50° 91° (E) 19:07:34 435.465 / 435.565
STRAND 1 18 Jan 18:53:06 18:58:12 62° 101° (ESE) 19:03:17 437.568
SEEDS 18 Jan 19:00:22 19:04:34 85° 256° (WSW) 19:08:49 437.485
CUBEBUG 2 18 Jan 19:05:23 19:09:32 63° 76° (ENE) 19:13:38 437.445
Oscar 11 18 Jan 19:06:46 19:09:50 19° 69° (ENE) 19:12:55 145.826/435.025
COMPASS 1 18 Jan 19:09:46 19:13:55 79° 79° (ENE) 19:18:09 437.405
AIST 2 18 Jan 19:10:36 19:14:37 59° 116° (ESE) 19:18:42 435.215
AAUSAT CUBESAT 2 18 Jan 19:23:11 19:27:21 87° 73° (ENE) 19:31:33 437.432
CINEMA 3 18 Jan 19:36:26 19:38:14 12° 267° (W) 19:40:01 145.822/145.860
UWE-3 18 Jan 19:38:05 19:42:15 84° 256° (WSW) 19:46:24 435.000/436.395/437.385
HO-68 18 Jan 19:38:08 19:44:31 34° 262° (W) 19:50:58 435.675
FUNcube-1 18 Jan 19:39:41 19:43:40 50° 75° (ENE) 19:47:40 145.935
CUTE 1.7 + AOD 2 18 Jan 19:54:27 19:56:23 13° 268° (W) 19:58:19 437.475
ZACube-1 18 Jan 20:01:26 20:05:33 77° 257° (WSW) 20:09:43 437.345
SRMSAT 18 Jan 20:13:48 20:17:24 16° 189° (S) 20:21:00 437.500
HUMSAT D 18 Jan 20:30:33 20:34:04 29° 72° (ENE) 20:37:39 437.325/437.525
GONETS M04 18 Jan 20:31:04 20:39:23 50° 282° (WNW) 20:47:50
STRAND 1 18 Jan 20:34:17 20:36:48 14° 296° (WNW) 20:39:21 437.568
Oscar 11 18 Jan 20:41:58 20:45:44 30° 263° (W) 20:49:32 145.826/435.025
UNISAT 6 18 Jan 20:42:59 20:44:58 13° 93° (E) 20:46:57 437.425
Cosmos 2499 18 Jan 20:45:56 20:53:09 30° 285° (WNW) 21:00:01 435.465 / 435.565
ISS 18 Jan 20:50:43 20:52:15 13° 127° (SE) 20:53:47 145.825
AIST 2 18 Jan 20:51:43 20:53:28 12° 312° (NW) 20:55:12 435.215
PRISM 18 Jan 20:53:46 20:57:51 62° 101° (E) 21:01:53 437.425
TIGRISAT 18 Jan 20:56:06 20:59:02 17° 95° (E) 21:01:59 435.000
DELFI C3 18 Jan 20:57:56 21:01:52 58° 260° (W) 21:05:51 145.870
BY70-1 18 Jan 21:07:04 21:08:25 13° 68° (ENE) 21:09:49 436.1900
ANTELSAT 18 Jan 21:10:07 21:13:53 27° 97° (E) 21:17:42 437.575/2403.000
CUBEBUG 1 18 Jan 22:02:04 22:05:38 24° 70° (ENE) 22:09:13 437.445
HUMSAT D 18 Jan 22:07:01 22:09:42 17° 266° (W) 22:12:24 437.325/437.525
RS-15 18 Jan 22:10:57 22:21:20 39° 105° (ESE) 22:32:07 29.354- 29.394
50 SAT 18 Jan 22:12:28 22:13:13 11° 68° (ENE) 22:13:58 437.505
AISAT 18 Jan 22:13:38 22:17:02 22° 69° (ENE) 22:20:25 437.250
UNISAT 6 18 Jan 22:17:35 22:21:50 47° 286° (WNW) 22:26:11 437.425
ISS 18 Jan 22:25:16 22:28:24 45° 320° (NW) 22:31:33 145.825
ESTCUBE 1 18 Jan 22:26:23 22:30:53 85° 80° (E) 22:35:28 437.505/2401.250
TIGRISAT 18 Jan 22:31:43 22:35:46 35° 287° (WNW) 22:39:52 435.000
JAS-2 18 Jan 22:32:35 22:39:49 67° 102° (ESE) 22:47:34 435.910
QB50P1 18 Jan 22:33:27 22:36:31 19° 95° (E) 22:39:34 145.935-145.965
BY70-1 18 Jan 22:36:23 22:38:32 19° 265° (W) 22:40:50 436.1900
POLYITAN 1 18 Jan 22:36:49 22:40:05 21° 96° (E) 22:43:21 437.675
QB50P2 18 Jan 22:37:52 22:41:17 24° 96° (E) 22:44:43 145.880/145.840
VELOX 1 18 Jan 22:46:06 22:50:22 48° 74° (ENE) 22:54:39 145.980
ANTELSAT 18 Jan 22:46:56 22:50:26 23° 290° (WNW) 22:53:59 437.575/2403.000
AO-85 18 Jan 22:52:06 22:55:55 52° 59° (ENE) 22:59:44 145.980
POPSAT HIP 1 18 Jan 22:59:26 23:03:24 39° 99° (E) 23:07:21 437.405
DUCHIFAT 1 18 Jan 23:12:32 23:16:36 48° 100° (E) 23:20:40 145.980
